Time,TemperatureF,DewpointF,PressureIn,WindDirection,WindDirectionDegrees,WindSpeedMPH,WindSpeedGustMPH,Humidity,HourlyPrecipIn,Conditions,Clouds,dailyrainin,SoftwareType,DateUTC
2013-02-10 00:01:00,34.0,18.0,29.96,WSW,238,23.0,30.0,52,0.00,,,0.00,,2013-02-10 08:01:00,
2013-02-10 00:11:00,34.0,18.0,29.96,WSW,238,23.0,30.0,52,0.00,,,0.00,,2013-02-10 08:11:00,
2013-02-10 00:21:00,34.0,19.0,29.97,WSW,238,21.0,28.0,53,0.00,,,0.00,,2013-02-10 08:21:00,
2013-02-10 00:31:00,34.0,18.0,29.97,WSW,244,15.0,25.0,52,0.00,,,0.00,,2013-02-10 08:31:00,
2013-02-10 00:42:00,34.0,18.0,29.97,WSW,244,15.0,25.0,52,0.00,,,0.00,,2013-02-10 08:42:00,
2013-02-10 00:52:00,34.0,19.0,29.97,WSW,240,17.0,22.0,54,0.00,,,0.00,,2013-02-10 08:52:00,
2013-02-10 01:01:00,33.0,19.0,29.97,WSW,247,11.0,23.0,57,0.00,,,0.00,,2013-02-10 09:01:00,
2013-02-10 01:11:00,33.0,19.0,29.97,WSW,247,11.0,23.0,57,0.00,,,0.00,,2013-02-10 09:11:00,
2013-02-10 01:21:00,32.0,19.0,29.96,WSW,246,15.0,20.0,57,0.00,,,0.00,,2013-02-10 09:21:00,
2013-02-10 01:31:00,32.0,18.0,29.96,WSW,238,13.0,20.0,56,0.00,,,0.00,,2013-02-10 09:31:00,
2013-02-10 01:41:00,32.0,18.0,29.96,WSW,238,13.0,20.0,56,0.00,,,0.00,,2013-02-10 09:41:00,
2013-02-10 01:51:00,31.0,18.0,29.96,SW,231,14.0,19.0,59,0.00,,,0.00,,2013-02-10 09:51:00,
2013-02-10 02:01:00,32.0,19.0,29.96,SW,231,17.0,22.0,57,0.00,,,0.00,,2013-02-10 10:01:00,
2013-02-10 02:11:00,32.0,19.0,29.95,SW,233,13.0,21.0,58,0.00,,,0.00,,2013-02-10 10:11:00,
2013-02-10 02:21:00,32.0,19.0,29.95,SW,233,13.0,21.0,58,0.00,,,0.00,,2013-02-10 10:21:00,
2013-02-10 02:31:00,32.0,18.0,29.94,WSW,243,16.0,20.0,56,0.00,,,0.00,,2013-02-10 10:31:00,
2013-02-10 02:41:00,32.0,18.0,29.94,WSW,243,16.0,20.0,56,0.00,,,0.00,,2013-02-10 10:41:00,
2013-02-10 02:51:00,32.0,18.0,29.95,WSW,246,15.0,21.0,56,0.00,,,0.00,,2013-02-10 10:51:00,
2013-02-10 03:01:00,32.0,18.0,29.95,WSW,246,15.0,21.0,56,0.00,,,0.00,,2013-02-10 11:01:00,
2013-02-10 03:11:00,32.0,18.0,29.95,WSW,246,15.0,21.0,56,0.00,,,0.00,,2013-02-10 11:11:00,
2013-02-10 03:21:00,30.0,17.0,29.94,WSW,239,11.0,17.0,59,0.00,,,0.00,,2013-02-10 11:21:00,
2013-02-10 03:31:00,30.0,17.0,29.94,SW,231,11.0,18.0,59,0.00,,,0.00,,2013-02-10 11:31:00,
2013-02-10 03:42:00,30.0,17.0,29.94,SW,231,11.0,18.0,59,0.00,,,0.00,,2013-02-10 11:42:00,
2013-02-10 03:52:00,30.0,18.0,29.91,WSW,237,11.0,15.0,60,0.00,,,0.00,,2013-02-10 11:52:00,
2013-02-10 04:01:00,30.0,17.0,29.91,SW,235,12.0,18.0,59,0.00,,,0.00,,2013-02-10 12:01:00,
2013-02-10 04:12:00,30.0,17.0,29.91,SW,235,12.0,18.0,59,0.00,,,0.00,,2013-02-10 12:12:00,
2013-02-10 04:21:00,30.0,18.0,29.91,SW,236,11.0,18.0,60,0.00,,,0.00,,2013-02-10 12:21:00,
2013-02-10 04:31:00,32.0,19.0,29.91,WSW,241,16.0,22.0,57,0.00,,,0.00,,2013-02-10 12:31:00,
2013-02-10 04:41:00,32.0,19.0,29.91,WSW,241,16.0,22.0,57,0.00,,,0.00,,2013-02-10 12:41:00,
2013-02-10 04:52:00,31.0,18.0,29.91,SW,234,19.0,24.0,59,0.00,,,0.00,,2013-02-10 12:52:00,
2013-02-10 05:02:00,32.0,18.0,29.91,WSW,241,18.0,26.0,56,0.00,,,0.00,,2013-02-10 13:02:00,
2013-02-10 05:21:00,32.0,19.0,29.91,WSW,245,17.0,24.0,58,0.00,,,0.00,,2013-02-10 13:21:00,
2013-02-10 05:31:00,32.0,19.0,29.92,WSW,246,19.0,24.0,57,0.00,,,0.00,,2013-02-10 13:31:00,
2013-02-10 05:41:00,32.0,19.0,29.92,WSW,246,19.0,24.0,57,0.00,,,0.00,,2013-02-10 13:41:00,
2013-02-10 05:51:00,31.0,18.0,29.92,WSW,247,15.0,22.0,57,0.00,,,0.00,,2013-02-10 13:51:00,
2013-02-10 06:01:00,31.0,18.0,29.92,WSW,253,14.0,22.0,57,0.00,,,0.00,,2013-02-10 14:01:00,
2013-02-10 06:11:00,31.0,18.0,29.92,WSW,253,14.0,22.0,57,0.00,,,0.00,,2013-02-10 14:11:00,
2013-02-10 06:21:00,32.0,19.0,29.92,WSW,253,15.0,24.0,57,0.00,,,0.00,,2013-02-10 14:21:00,
2013-02-10 06:31:00,32.0,19.0,29.92,WSW,254,14.0,24.0,58,0.00,,,0.00,,2013-02-10 14:31:00,
2013-02-10 06:41:00,32.0,19.0,29.92,WSW,254,14.0,24.0,58,0.00,,,0.00,,2013-02-10 14:41:00,
2013-02-10 06:52:00,32.0,19.0,29.92,WSW,256,16.0,23.0,58,0.00,,,0.00,,2013-02-10 14:52:00,
2013-02-10 07:01:00,32.0,19.0,29.92,WSW,247,14.0,19.0,58,0.00,,,0.00,,2013-02-10 15:01:00,
2013-02-10 07:11:00,32.0,19.0,29.92,WSW,247,14.0,19.0,58,0.00,,,0.00,,2013-02-10 15:11:00,
2013-02-10 07:21:00,32.0,19.0,29.92,West,262,14.0,20.0,57,0.00,,,0.00,,2013-02-10 15:21:00,
2013-02-10 07:31:00,32.0,19.0,29.93,WSW,253,14.0,23.0,57,0.00,,,0.00,,2013-02-10 15:31:00,
2013-02-10 07:41:00,32.0,19.0,29.93,WSW,253,14.0,23.0,57,0.00,,,0.00,,2013-02-10 15:41:00,
2013-02-10 07:52:00,32.0,18.0,29.93,West,260,16.0,21.0,56,0.00,,,0.00,,2013-02-10 15:52:00,
2013-02-10 08:01:00,33.0,19.0,29.93,WSW,251,15.0,22.0,56,0.00,,,0.00,,2013-02-10 16:01:00,
2013-02-10 08:11:00,34.0,19.0,29.93,WSW,250,14.0,22.0,53,0.00,,,0.00,,2013-02-10 16:11:00,
2013-02-10 08:21:00,34.0,19.0,29.93,WSW,250,14.0,22.0,53,0.00,,,0.00,,2013-02-10 16:21:00,
2013-02-10 08:31:00,35.0,19.0,29.94,WSW,240,15.0,21.0,51,0.00,,,0.00,,2013-02-10 16:31:00,
2013-02-10 08:41:00,36.0,19.0,29.94,WSW,255,16.0,22.0,49,0.00,,,0.00,,2013-02-10 16:41:00,
2013-02-10 08:52:00,36.0,19.0,29.94,WSW,255,16.0,22.0,49,0.00,,,0.00,,2013-02-10 16:52:00,
2013-02-10 09:01:00,37.0,19.0,29.95,West,264,12.0,19.0,47,0.00,,,0.00,,2013-02-10 17:01:00,
2013-02-10 09:11:00,37.0,19.0,29.95,West,264,12.0,19.0,47,0.00,,,0.00,,2013-02-10 17:11:00,
2013-02-10 09:21:00,41.0,18.0,29.95,West,260,11.0,15.0,39,0.00,,,0.00,,2013-02-10 17:21:00,
2013-02-10 09:31:00,41.0,16.0,29.95,SW,223,5.0,15.0,36,0.00,,,0.00,,2013-02-10 17:31:00,
2013-02-10 09:41:00,43.0,18.0,29.96,WSW,238,10.0,15.0,36,0.00,,,0.00,,2013-02-10 17:41:00,
2013-02-10 09:52:00,43.0,18.0,29.96,WSW,238,10.0,15.0,36,0.00,,,0.00,,2013-02-10 17:52:00,
2013-02-10 10:01:00,42.0,18.0,29.96,SW,219,8.0,16.0,38,0.00,,,0.00,,2013-02-10 18:01:00,
2013-02-10 10:11:00,44.0,19.0,29.96,ESE,113,5.0,11.0,36,0.00,,,0.00,,2013-02-10 18:11:00,
2013-02-10 10:21:00,44.0,19.0,29.96,ESE,113,5.0,11.0,36,0.00,,,0.00,,2013-02-10 18:21:00,
2013-02-10 10:31:00,44.0,19.0,30.00,East,82,8.0,13.0,36,0.00,,,0.00,,2013-02-10 18:31:00,
2013-02-10 10:41:00,44.0,19.0,30.00,East,82,8.0,13.0,36,0.00,,,0.00,,2013-02-10 18:41:00,
2013-02-10 10:52:00,43.0,18.0,30.00,East,100,7.0,11.0,36,0.00,,,0.00,,2013-02-10 18:52:00,
2013-02-10 11:01:00,43.0,18.0,30.00,East,98,5.0,9.0,36,0.00,,,0.00,,2013-02-10 19:01:00,
2013-02-10 11:11:00,43.0,17.0,30.00,ENE,70,8.0,15.0,35,0.00,,,0.00,,2013-02-10 19:11:00,
2013-02-10 11:21:00,43.0,17.0,30.00,ENE,70,8.0,15.0,35,0.00,,,0.00,,2013-02-10 19:21:00,
2013-02-10 11:31:00,44.0,18.0,30.00,East,83,8.0,12.0,35,0.00,,,0.00,,2013-02-10 19:31:00,
2013-02-10 11:42:00,44.0,17.0,29.99,East,95,7.0,11.0,34,0.00,,,0.00,,2013-02-10 19:42:00,
2013-02-10 11:52:00,44.0,17.0,29.99,East,95,7.0,11.0,34,0.00,,,0.00,,2013-02-10 19:52:00,
2013-02-10 12:01:00,45.0,18.0,29.98,East,100,5.0,13.0,33,0.00,,,0.00,,2013-02-10 20:01:00,
2013-02-10 12:11:00,45.0,18.0,29.98,East,100,5.0,13.0,33,0.00,,,0.00,,2013-02-10 20:11:00,
2013-02-10 12:21:00,45.0,17.0,29.97,East,89,13.0,17.0,32,0.00,,,0.00,,2013-02-10 20:21:00,
2013-02-10 12:31:00,45.0,17.0,29.96,East,88,6.0,14.0,32,0.00,,,0.00,,2013-02-10 20:31:00,
2013-02-10 12:41:00,45.0,17.0,29.96,East,93,6.0,13.0,32,0.00,,,0.00,,2013-02-10 20:41:00,
2013-02-10 12:52:00,45.0,17.0,29.96,East,93,6.0,13.0,32,0.00,,,0.00,,2013-02-10 20:52:00,
2013-02-10 13:02:00,46.0,18.0,29.95,East,97,2.0,9.0,32,0.00,,,0.00,,2013-02-10 21:02:00,
2013-02-10 13:11:00,46.0,18.0,29.95,East,97,2.0,9.0,32,0.00,,,0.00,,2013-02-10 21:11:00,
2013-02-10 13:21:00,46.0,16.0,29.94,East,101,5.0,11.0,30,0.00,,,0.00,,2013-02-10 21:21:00,
2013-02-10 13:31:00,46.0,16.0,29.93,SSE,147,5.0,10.0,30,0.00,,,0.00,,2013-02-10 21:31:00,
2013-02-10 13:41:00,47.0,16.0,29.93,SE,143,6.0,9.0,29,0.00,,,0.00,,2013-02-10 21:41:00,
2013-02-10 13:52:00,47.0,16.0,29.93,SE,143,6.0,9.0,29,0.00,,,0.00,,2013-02-10 21:52:00,
2013-02-10 14:01:00,47.0,17.0,29.92,ENE,64,7.0,12.0,30,0.00,,,0.00,,2013-02-10 22:01:00,
2013-02-10 14:11:00,47.0,16.0,29.92,North,0,0.0,11.0,29,0.00,,,0.00,,2013-02-10 22:11:00,
2013-02-10 14:21:00,47.0,16.0,29.92,North,0,0.0,11.0,29,0.00,,,0.00,,2013-02-10 22:21:00,
2013-02-10 14:31:00,48.0,16.0,29.91,ESE,114,4.0,9.0,28,0.00,,,0.00,,2013-02-10 22:31:00,
2013-02-10 14:41:00,48.0,16.0,29.90,North,0,0.0,10.0,28,0.00,,,0.00,,2013-02-10 22:41:00,
2013-02-10 14:52:00,48.0,16.0,29.90,North,0,0.0,10.0,28,0.00,,,0.00,,2013-02-10 22:52:00,
2013-02-10 15:01:00,49.0,23.0,29.90,WSW,239,8.0,13.0,36,0.00,,,0.00,,2013-02-10 23:01:00,
2013-02-10 15:11:00,49.0,23.0,29.90,WSW,239,8.0,13.0,36,0.00,,,0.00,,2013-02-10 23:11:00,
2013-02-10 15:21:00,48.0,24.0,29.90,SW,226,10.0,14.0,39,0.00,,,0.00,,2013-02-10 23:21:00,
2013-02-10 15:31:00,48.0,25.0,29.90,SW,231,12.0,18.0,40,0.00,,,0.00,,2013-02-10 23:31:00,
2013-02-10 15:41:00,48.0,25.0,29.90,WSW,241,11.0,16.0,40,0.00,,,0.00,,2013-02-10 23:41:00,
2013-02-10 15:52:00,48.0,25.0,29.90,WSW,241,11.0,16.0,40,0.00,,,0.00,,2013-02-10 23:52:00,
2013-02-10 16:01:00,47.0,25.0,29.91,West,264,10.0,17.0,41,0.00,,,0.00,,2013-02-11 00:01:00,
2013-02-10 16:11:00,46.0,24.0,29.91,West,277,9.0,17.0,41,0.00,,,0.00,,2013-02-11 00:11:00,
2013-02-10 16:21:00,46.0,24.0,29.91,West,277,9.0,17.0,41,0.00,,,0.00,,2013-02-11 00:21:00,
2013-02-10 16:31:00,45.0,23.0,29.91,West,280,10.0,17.0,42,0.00,,,0.00,,2013-02-11 00:31:00,
2013-02-10 16:41:00,45.0,25.0,29.91,West,266,10.0,18.0,45,0.00,,,0.00,,2013-02-11 00:41:00,
2013-02-10 16:52:00,45.0,25.0,29.91,West,266,10.0,18.0,45,0.00,,,0.00,,2013-02-11 00:52:00,
2013-02-10 17:01:00,43.0,25.0,29.91,WNW,284,13.0,20.0,48,0.00,,,0.00,,2013-02-11 01:01:00,
2013-02-10 17:11:00,43.0,25.0,29.91,WNW,284,13.0,20.0,48,0.00,,,0.00,,2013-02-11 01:11:00,
2013-02-10 17:21:00,42.0,25.0,29.91,WNW,285,12.0,18.0,50,0.00,,,0.00,,2013-02-11 01:21:00,
2013-02-10 17:31:00,41.0,25.0,29.91,WNW,295,13.0,18.0,52,0.00,,,0.00,,2013-02-11 01:31:00,
2013-02-10 17:41:00,40.0,24.0,29.91,WNW,302,14.0,21.0,53,0.00,,,0.00,,2013-02-11 01:41:00,
2013-02-10 17:52:00,40.0,24.0,29.91,WNW,302,14.0,21.0,53,0.00,,,0.00,,2013-02-11 01:52:00,
2013-02-10 18:01:00,40.0,24.0,29.91,WNW,302,16.0,22.0,53,0.00,,,0.00,,2013-02-11 02:01:00,
2013-02-10 18:11:00,40.0,24.0,29.91,WNW,302,16.0,22.0,53,0.00,,,0.00,,2013-02-11 02:11:00,
2013-02-10 18:21:00,40.0,24.0,29.91,WNW,291,16.0,22.0,53,0.00,,,0.00,,2013-02-11 02:21:00,
2013-02-10 18:31:00,39.0,24.0,29.90,WNW,282,15.0,23.0,54,0.00,,,0.00,,2013-02-11 02:31:00,
2013-02-10 18:41:00,38.0,23.0,29.91,West,264,12.0,22.0,55,0.00,,,0.00,,2013-02-11 02:41:00,
2013-02-10 18:52:00,38.0,23.0,29.91,West,264,12.0,22.0,55,0.00,,,0.00,,2013-02-11 02:52:00,
2013-02-10 19:01:00,38.0,23.0,29.91,West,276,13.0,20.0,54,0.00,,,0.00,,2013-02-11 03:01:00,
2013-02-10 19:11:00,38.0,23.0,29.90,WNW,285,19.0,27.0,54,0.00,,,0.00,,2013-02-11 03:11:00,
2013-02-10 19:21:00,38.0,23.0,29.90,WNW,285,19.0,27.0,54,0.00,,,0.00,,2013-02-11 03:21:00,
2013-02-10 19:31:00,38.0,23.0,29.89,WNW,293,18.0,28.0,54,0.00,,,0.00,,2013-02-11 03:31:00,
2013-02-10 19:41:00,38.0,23.0,29.89,WNW,292,18.0,29.0,54,0.00,,,0.00,,2013-02-11 03:41:00,
2013-02-10 19:52:00,38.0,23.0,29.89,WNW,292,18.0,29.0,54,0.00,,,0.00,,2013-02-11 03:52:00,
2013-02-10 20:01:00,38.0,24.0,29.89,NW,310,10.0,21.0,56,0.00,,,0.00,,2013-02-11 04:01:00,
2013-02-10 20:11:00,38.0,24.0,29.89,NW,310,10.0,21.0,56,0.00,,,0.00,,2013-02-11 04:11:00,
2013-02-10 20:21:00,38.0,24.0,29.90,NW,313,10.0,24.0,57,0.00,,,0.00,,2013-02-11 04:21:00,
2013-02-10 20:31:00,38.0,24.0,29.91,NW,309,12.0,24.0,56,0.00,,,0.00,,2013-02-11 04:31:00,
2013-02-10 20:41:00,39.0,24.0,29.91,NNW,328,13.0,24.0,55,0.00,,,0.00,,2013-02-11 04:41:00,
2013-02-10 20:51:00,39.0,24.0,29.91,NNW,328,13.0,24.0,55,0.00,,,0.00,,2013-02-11 04:51:00,
2013-02-10 21:01:00,39.0,24.0,29.92,NW,325,15.0,24.0,55,0.00,,,0.00,,2013-02-11 05:01:00,
2013-02-10 21:11:00,38.0,24.0,29.93,NW,313,18.0,29.0,57,0.00,,,0.00,,2013-02-11 05:11:00,
2013-02-10 21:22:00,38.0,24.0,29.93,NW,313,18.0,29.0,57,0.00,,,0.00,,2013-02-11 05:22:00,
2013-02-10 21:31:00,39.0,22.0,29.92,NNW,342,13.0,19.0,50,0.00,,,0.00,,2013-02-11 05:31:00,
2013-02-10 21:41:00,40.0,21.0,29.93,NNW,342,13.0,20.0,47,0.00,,,0.00,,2013-02-11 05:41:00,
2013-02-10 21:52:00,40.0,21.0,29.93,NNW,342,13.0,20.0,47,0.00,,,0.00,,2013-02-11 05:52:00,
2013-02-10 22:01:00,41.0,21.0,29.93,North,349,12.0,22.0,44,0.00,,,0.00,,2013-02-11 06:01:00,
2013-02-10 22:11:00,41.0,21.0,29.93,North,349,12.0,22.0,44,0.00,,,0.00,,2013-02-11 06:11:00,
2013-02-10 22:21:00,41.0,22.0,29.94,NNE,32,13.0,25.0,46,0.00,,,0.00,,2013-02-11 06:21:00,
2013-02-10 22:31:00,41.0,21.0,29.95,NNE,32,12.0,22.0,45,0.00,,,0.00,,2013-02-11 06:31:00,
2013-02-10 22:41:00,41.0,21.0,29.96,NE,46,9.0,18.0,45,0.00,,,0.00,,2013-02-11 06:41:00,
2013-02-10 22:52:00,41.0,21.0,29.96,NE,46,9.0,18.0,45,0.00,,,0.00,,2013-02-11 06:52:00,
2013-02-10 23:01:00,40.0,20.0,29.96,NE,53,6.0,12.0,45,0.00,,,0.00,,2013-02-11 07:01:00,
2013-02-10 23:11:00,39.0,20.0,29.97,North,0,0.0,8.0,47,0.00,,,0.00,,2013-02-11 07:11:00,
2013-02-10 23:21:00,39.0,20.0,29.97,North,0,0.0,8.0,47,0.00,,,0.00,,2013-02-11 07:21:00,
2013-02-10 23:31:00,37.0,23.0,29.98,West,263,6.0,8.0,56,0.00,,,0.00,,2013-02-11 07:31:00,
2013-02-10 23:41:00,34.0,23.0,29.98,SW,232,8.0,15.0,65,0.00,,,0.00,,2013-02-11 07:41:00,
2013-02-10 23:52:00,34.0,23.0,29.98,SW,232,8.0,15.0,65,0.00,,,0.00,,2013-02-11 07:52:00,